Flag for Germany Weather past 2 weeks in Andernach, Rhineland-Palatinate, Germany

Now
43 °F

Quite cool.


Feels Like: 37 °F
Forecast: 47 / 55 °F
Wind: 9 mph from West

Location: Buechel

Current Time: Dec 17, 2014 at 9:36:57 PM

Latest Report: Dec 17, 2014 at 8:20 PM


Visibility: 0 mi

Pressure: 29.80 "Hg

Humidity: 93%

Dew point: 41 °F

Location of AndernachLocation

Historic Weather in Andernach — Graph

°F

Andernach temperature yesterday

Maximum temperature yesterday: 39 °F (at 10:20 AM)
Minimum temperature yesterday: 34 °F (at 10:20 PM)
Average temperature yesterday: 37 °F

Past Weeks' High & Low Weather Summary

 TemperatureHumidityPressure
High45 °F (Dec 12, 8:20 PM)100% (Dec 2, 8:20 PM)30.33 "Hg (Dec 2, 8:20 PM)
Low28 °F (Dec 3, 7:20 PM)81% (Dec 14, 12:20 PM)29.50 "Hg (Dec 12, 3:20 PM)
Average34 °F96%29.97 "Hg
* Reported Dec 2 8:20 PM — Dec 17 8:20 PM, Andernach, Weather by CustomWeather, © 2014

Note: Actual official high and low records may vary slightly from our data, if they occured in-between our weather recording intervals... More about our weather records

Advertising

Andernach weather history for previous 24 hours

 ConditionsComfort  
Time TempWeatherWind HumidityBarometerVisibility
8:20 PM
Dec 17
43 °FQuite cool.9 mph93%29.80 "Hg0 mi
7:20 PM41 °FQuite cool.8 mph100%29.77 "Hg0 mi
6:20 PM41 °FQuite cool.9 mph93%29.74 "Hg0 mi
5:20 PM39 °FChilly.12 mph100%29.71 "Hg1 mi
4:20 PM39 °FChilly.13 mph100%29.71 "Hg1 mi
3:20 PM39 °FChilly.14 mph93%29.68 "Hg1 mi
2:20 PM37 °FChilly.14 mph100%29.65 "Hg1 mi
1:20 PM37 °FDrizzle. Fog.17 mph93%29.65 "Hg2 mi
12:20 PM37 °FDrizzle. Fog.18 mph93%29.68 "Hg2 mi
11:20 AM36 °FDrizzle. Fog.16 mph100%29.71 "Hg1 mi
10:20 AM36 °FDrizzle. Fog.20 mph93%29.71 "Hg1 mi
9:20 AM36 °FDrizzle. Fog.20 mph100%29.74 "Hg2 mi
8:49 AM36 °FDrizzle. Fog.17 mph100%29.77 "Hg1 mi
8:20 AM36 °FDrizzle. Fog.15 mph100%29.77 "Hg2 mi
7:20 AM36 °FFog.14 mph93%29.80 "Hg2 mi
6:20 AM36 °FDrizzle. Fog.13 mph93%29.83 "Hg1 mi
5:20 AM34 °FFog.12 mph100%29.86 "Hg0 mi
4:20 AM34 °FFog.8 mph100%29.89 "Hg0 mi
3:20 AM32 °FChilly.8 mph100%29.92 "Hg0 mi
2:20 AM32 °FChilly.7 mph93%29.92 "Hg0 mi
1:20 AM34 °FChilly.6 mph93%29.95 "Hg2 mi
12:20 AM34 °FChilly.6 mph93%29.95 "Hg2 mi
11:20 PM
Dec 16
34 °FChilly.8 mph100%29.95 "Hg4 mi
10:20 PM34 °FChilly.6 mph100%29.95 "Hg3 mi
9:20 PM36 °FChilly.7 mph93%29.95 "Hg4 mi
Weather by CustomWeather, © 2014

See weather overviewHow to use our weather pages